Location: Cheyres
(46.8153°N, 6.7877°E)
Time: 12:38:17
(UTC+00:00)

Cosmos 1934 Rocket - Pass Details

Date: 11 May 2021
Orbit: 937 x 1000 km, 83.0° (Epoch: 19 June)

Event Time Altitude Azimuth Distance (km) Brightness Sun altitude
Rises 23:32:01 0° 352° (N) 3,657 8.4 -25.0°
Reaches altitude 10° 23:34:34 10° 355° (N) 2,698 7.4 -25.0°
Maximum altitude 23:40:43 69° 79° (E) 1,010 4.0 -25.0°
Enters shadow 23:42:12 51° 141° (SE) 1,175 4.1 -25.0°
